Time,TemperatureF,DewpointF,PressureIn,WindDirection,WindDirectionDegrees,WindSpeedMPH,WindSpeedGustMPH,Humidity,HourlyPrecipIn,Conditions,Clouds,dailyrainin,SoftwareType,DateUTC
2013-02-21 00:07:00,18.1,13.3,29.40,SE,135,2.7,-999.0,81,-99.99,,,0.00,Acu-Link.com,2013-02-21 07:07:00,
2013-02-21 00:23:00,17.1,12.6,29.39,SE,135,0.0,-999.0,82,-99.99,,,0.00,Acu-Link.com,2013-02-21 07:23:00,
2013-02-21 00:38:00,16.7,12.5,29.40,SE,135,0.0,-999.0,83,-99.99,,,0.00,Acu-Link.com,2013-02-21 07:38:00,
2013-02-21 00:53:00,16.7,12.5,29.39,SE,135,0.0,-999.0,83,-99.99,,,0.00,Acu-Link.com,2013-02-21 07:53:00,
2013-02-21 01:09:00,17.1,12.8,29.40,SE,135,2.2,-999.0,83,-99.99,,,0.00,Acu-Link.com,2013-02-21 08:09:00,
2013-02-21 01:24:00,17.2,12.9,29.40,SE,135,1.7,-999.0,83,-99.99,,,0.00,Acu-Link.com,2013-02-21 08:24:00,
2013-02-21 01:39:00,17.4,13.1,29.40,SE,135,0.0,-999.0,83,-99.99,,,0.00,Acu-Link.com,2013-02-21 08:39:00,
2013-02-21 01:54:00,17.8,13.5,29.40,SE,135,0.0,-999.0,83,-99.99,,,0.00,Acu-Link.com,2013-02-21 08:54:00,
2013-02-21 02:20:00,17.4,12.9,29.41,SE,135,0.0,-999.0,82,-99.99,,,0.00,Acu-Link.com,2013-02-21 09:20:00,
2013-02-21 02:36:00,17.8,13.3,29.39,SE,135,3.7,-999.0,82,-99.99,,,0.00,Acu-Link.com,2013-02-21 09:36:00,
2013-02-21 02:51:00,18.0,13.5,29.39,SE,135,2.7,-999.0,82,-99.99,,,0.00,Acu-Link.com,2013-02-21 09:51:00,
2013-02-21 03:06:00,17.2,12.7,29.39,West,270,2.2,-999.0,82,-99.99,,,0.00,Acu-Link.com,2013-02-21 10:06:00,
2013-02-21 03:21:00,16.3,11.8,29.40,West,270,0.0,-999.0,82,-99.99,,,0.00,Acu-Link.com,2013-02-21 10:21:00,
2013-02-21 03:37:00,16.3,12.1,29.40,West,270,0.0,-999.0,83,-99.99,,,0.00,Acu-Link.com,2013-02-21 10:37:00,
2013-02-21 03:52:00,15.3,10.8,29.41,West,270,1.7,-999.0,82,-99.99,,,0.00,Acu-Link.com,2013-02-21 10:52:00,
2013-02-21 04:07:00,15.6,11.4,29.41,West,270,0.0,-999.0,83,-99.99,,,0.00,Acu-Link.com,2013-02-21 11:07:00,
2013-02-21 04:23:00,15.6,11.1,29.42,SE,135,3.7,-999.0,82,-99.99,,,0.00,Acu-Link.com,2013-02-21 11:23:00,
2013-02-21 04:38:00,17.1,12.6,29.43,SW,225,2.7,-999.0,82,-99.99,,,0.00,Acu-Link.com,2013-02-21 11:38:00,
2013-02-21 04:53:00,18.1,13.5,29.44,SW,225,3.2,-999.0,82,-99.99,,,0.00,Acu-Link.com,2013-02-21 11:53:00,
2013-02-21 05:08:00,18.1,13.3,29.44,SW,225,3.2,-999.0,81,-99.99,,,0.00,Acu-Link.com,2013-02-21 12:08:00,
2013-02-21 05:23:00,18.1,13.3,29.45,SW,225,2.2,-999.0,81,-99.99,,,0.00,Acu-Link.com,2013-02-21 12:23:00,
2013-02-21 05:39:00,18.5,13.7,29.46,SW,225,0.0,-999.0,81,-99.99,,,0.00,Acu-Link.com,2013-02-21 12:39:00,
2013-02-21 05:54:00,18.3,13.7,29.46,SW,225,2.7,-999.0,82,-99.99,,,0.00,Acu-Link.com,2013-02-21 12:54:00,
2013-02-21 06:09:00,17.2,12.7,29.47,SW,225,1.7,-999.0,82,-99.99,,,0.00,Acu-Link.com,2013-02-21 13:09:00,
2013-02-21 06:24:00,16.5,12.3,29.47,SW,225,2.2,-999.0,83,-99.99,,,0.00,Acu-Link.com,2013-02-21 13:24:00,
2013-02-21 06:40:00,15.8,11.3,29.49,SW,225,1.7,-999.0,82,-99.99,,,0.00,Acu-Link.com,2013-02-21 13:40:00,
2013-02-21 06:55:00,15.1,10.6,29.50,SW,225,0.0,-999.0,82,-99.99,,,0.00,Acu-Link.com,2013-02-21 13:55:00,
2013-02-21 07:10:00,15.3,10.8,29.50,SW,225,0.0,-999.0,82,-99.99,,,0.00,Acu-Link.com,2013-02-21 14:10:00,
2013-02-21 07:25:00,16.5,12.0,29.51,SW,225,0.0,-999.0,82,-99.99,,,0.00,Acu-Link.com,2013-02-21 14:25:00,
2013-02-21 07:41:00,24.6,19.6,29.52,SW,225,0.0,-999.0,81,-99.99,,,0.00,Acu-Link.com,2013-02-21 14:41:00,
2013-02-21 07:56:00,28.8,22.8,29.53,SW,225,0.0,-999.0,78,-99.99,,,0.00,Acu-Link.com,2013-02-21 14:56:00,
2013-02-21 08:11:00,33.8,25.7,29.55,SW,225,0.0,-999.0,72,-99.99,,,0.00,Acu-Link.com,2013-02-21 15:11:00,
2013-02-21 08:26:00,32.0,23.0,29.55,West,270,0.0,-999.0,69,-99.99,,,0.00,Acu-Link.com,2013-02-21 15:26:00,
2013-02-21 08:42:00,31.1,21.8,29.54,West,270,0.0,-999.0,68,-99.99,,,0.00,Acu-Link.com,2013-02-21 15:42:00,
2013-02-21 08:57:00,36.3,25.7,29.54,West,270,2.2,-999.0,65,-99.99,,,0.00,Acu-Link.com,2013-02-21 15:57:00,
2013-02-21 09:12:00,34.3,23.4,29.55,West,270,4.7,-999.0,64,-99.99,,,0.00,Acu-Link.com,2013-02-21 16:12:00,
2013-02-21 09:27:00,31.1,22.5,29.56,West,270,0.0,-999.0,70,-99.99,,,0.00,Acu-Link.com,2013-02-21 16:27:00,
2013-02-21 09:58:00,33.4,23.6,29.55,West,270,3.7,-999.0,67,-99.99,,,0.00,Acu-Link.com,2013-02-21 16:58:00,
2013-02-21 10:13:00,34.0,22.7,29.55,WSW,247,3.2,-999.0,63,-99.99,,,0.00,Acu-Link.com,2013-02-21 17:13:00,
2013-02-21 10:29:00,32.4,21.6,29.56,SSW,202,7.8,-999.0,64,-99.99,,,0.00,Acu-Link.com,2013-02-21 17:29:00,
2013-02-21 10:44:00,33.3,22.8,29.57,SW,225,6.3,-999.0,65,-99.99,,,0.00,Acu-Link.com,2013-02-21 17:44:00,
2013-02-21 10:59:00,32.0,21.9,29.56,SSW,202,14.5,-999.0,66,-99.99,,,0.00,Acu-Link.com,2013-02-21 17:59:00,
2013-02-21 11:14:00,34.5,22.8,29.56,SW,225,13.0,-999.0,62,-99.99,,,0.00,Acu-Link.com,2013-02-21 18:14:00,
2013-02-21 11:29:00,35.4,23.7,29.57,SW,225,9.9,-999.0,62,-99.99,,,0.01,Acu-Link.com,2013-02-21 18:29:00,
2013-02-21 11:44:00,34.2,23.3,29.55,West,270,13.5,-999.0,64,-99.99,,,0.01,Acu-Link.com,2013-02-21 18:44:00,
2013-02-21 11:59:00,34.3,23.0,29.55,SSW,202,13.0,-999.0,63,-99.99,,,0.01,Acu-Link.com,2013-02-21 18:59:00,
2013-02-21 12:14:00,34.0,22.4,29.55,WSW,247,17.1,-999.0,62,-99.99,,,0.01,Acu-Link.com,2013-02-21 19:14:00,
2013-02-21 12:29:00,34.0,23.1,29.55,SW,225,13.0,-999.0,64,-99.99,,,0.01,Acu-Link.com,2013-02-21 19:29:00,
2013-02-21 12:44:00,35.2,24.3,29.54,WSW,247,18.1,-999.0,64,-99.99,,,0.01,Acu-Link.com,2013-02-21 19:44:00,
2013-02-21 12:59:00,35.2,23.9,29.53,SSW,202,19.7,-999.0,63,-99.99,,,0.01,Acu-Link.com,2013-02-21 19:59:00,
2013-02-21 13:14:00,35.4,24.1,29.54,SSW,202,12.5,-999.0,63,-99.99,,,0.01,Acu-Link.com,2013-02-21 20:14:00,
2013-02-21 13:29:00,36.1,24.7,29.53,SW,225,16.6,-999.0,63,-99.99,,,0.01,Acu-Link.com,2013-02-21 20:29:00,
2013-02-21 13:45:00,36.1,23.6,29.54,SW,225,23.8,-999.0,60,-99.99,,,0.02,Acu-Link.com,2013-02-21 20:45:00,
2013-02-21 14:00:00,36.1,24.0,29.54,SW,225,18.6,-999.0,61,-99.99,,,0.02,Acu-Link.com,2013-02-21 21:00:00,
2013-02-21 14:15:00,37.2,24.2,29.55,SW,225,15.5,-999.0,59,-99.99,,,0.02,Acu-Link.com,2013-02-21 21:15:00,
2013-02-21 14:30:00,37.6,25.8,29.54,SW,225,16.1,-999.0,62,-99.99,,,0.02,Acu-Link.com,2013-02-21 21:30:00,
2013-02-21 14:45:00,36.0,23.1,29.54,SSW,202,17.6,-999.0,59,-99.99,,,0.02,Acu-Link.com,2013-02-21 21:45:00,
2013-02-21 15:00:00,37.0,24.4,29.55,SSW,202,12.5,-999.0,60,-99.99,,,0.02,Acu-Link.com,2013-02-21 22:00:00,
2013-02-21 15:15:00,36.9,23.9,29.56,WSW,247,11.4,-999.0,59,-99.99,,,0.02,Acu-Link.com,2013-02-21 22:15:00,
2013-02-21 15:30:00,36.9,23.1,29.56,SW,225,17.6,-999.0,57,-99.99,,,0.02,Acu-Link.com,2013-02-21 22:30:00,
2013-02-21 15:45:00,36.1,23.2,29.56,SW,225,21.2,-999.0,59,-99.99,,,0.02,Acu-Link.com,2013-02-21 22:45:00,
2013-02-21 16:00:00,35.6,22.7,29.57,SW,225,16.6,-999.0,59,-99.99,,,0.02,Acu-Link.com,2013-02-21 23:00:00,
2013-02-21 16:15:00,35.6,23.1,29.56,WSW,247,12.5,-999.0,60,-99.99,,,0.02,Acu-Link.com,2013-02-21 23:15:00,
2013-02-21 16:30:00,34.7,23.0,29.57,WSW,247,9.4,-999.0,62,-99.99,,,0.02,Acu-Link.com,2013-02-21 23:30:00,
2013-02-21 16:45:00,33.8,21.4,29.57,SSW,202,9.9,-999.0,60,-99.99,,,0.02,Acu-Link.com,2013-02-21 23:45:00,
2013-02-21 17:01:00,33.1,21.9,29.57,SSW,202,11.4,-999.0,63,-99.99,,,0.02,Acu-Link.com,2013-02-22 00:01:00,
2013-02-21 17:16:00,32.7,20.8,29.58,SW,225,18.6,-999.0,61,-99.99,,,0.02,Acu-Link.com,2013-02-22 00:16:00,
2013-02-21 17:31:00,32.5,20.6,29.61,SSW,202,9.4,-999.0,61,-99.99,,,0.02,Acu-Link.com,2013-02-22 00:31:00,
2013-02-21 17:46:00,32.0,20.5,29.61,SW,225,9.4,-999.0,62,-99.99,,,0.02,Acu-Link.com,2013-02-22 00:46:00,
2013-02-21 18:01:00,31.8,20.7,29.61,SW,225,7.8,-999.0,63,-99.99,,,0.02,Acu-Link.com,2013-02-22 01:01:00,
2013-02-21 18:16:00,31.5,20.7,29.64,WSW,247,11.4,-999.0,64,-99.99,,,0.02,Acu-Link.com,2013-02-22 01:16:00,
2013-02-21 18:31:00,30.7,20.4,29.64,SW,225,7.8,-999.0,65,-99.99,,,0.02,Acu-Link.com,2013-02-22 01:31:00,
2013-02-21 18:46:00,29.8,20.2,29.66,SSW,202,5.3,-999.0,67,-99.99,,,0.02,Acu-Link.com,2013-02-22 01:46:00,
2013-02-21 19:01:00,29.7,20.1,29.66,South,180,6.8,-999.0,67,-99.99,,,0.02,Acu-Link.com,2013-02-22 02:01:00,
2013-02-21 19:16:00,29.8,19.5,29.66,SSW,202,6.3,-999.0,65,-99.99,,,0.02,Acu-Link.com,2013-02-22 02:16:00,
2013-02-21 19:32:00,29.1,19.2,29.66,SW,225,3.7,-999.0,66,-99.99,,,0.02,Acu-Link.com,2013-02-22 02:32:00,
2013-02-21 19:47:00,28.4,19.2,29.66,South,180,2.2,-999.0,68,-99.99,,,0.02,Acu-Link.com,2013-02-22 02:47:00,
2013-02-21 20:02:00,28.2,19.4,29.68,South,180,3.2,-999.0,69,-99.99,,,0.02,Acu-Link.com,2013-02-22 03:02:00,
2013-02-21 20:17:00,28.9,19.7,29.67,South,180,3.7,-999.0,68,-99.99,,,0.02,Acu-Link.com,2013-02-22 03:17:00,
2013-02-21 20:32:00,29.1,20.2,29.68,South,180,2.7,-999.0,69,-99.99,,,0.02,Acu-Link.com,2013-02-22 03:32:00,
2013-02-21 20:47:00,29.5,19.9,29.68,SW,225,4.2,-999.0,67,-99.99,,,0.02,Acu-Link.com,2013-02-22 03:47:00,
2013-02-21 21:03:00,29.3,19.7,29.69,SW,225,4.7,-999.0,67,-99.99,,,0.02,Acu-Link.com,2013-02-22 04:03:00,
2013-02-21 21:18:00,28.9,19.7,29.68,SW,225,0.0,-999.0,68,-99.99,,,0.02,Acu-Link.com,2013-02-22 04:18:00,
2013-02-21 21:33:00,28.8,19.9,29.68,SW,225,3.7,-999.0,69,-99.99,,,0.02,Acu-Link.com,2013-02-22 04:33:00,
2013-02-21 21:48:00,28.8,19.9,29.69,SW,225,4.2,-999.0,69,-99.99,,,0.02,Acu-Link.com,2013-02-22 04:48:00,
2013-02-21 22:03:00,28.6,19.7,29.68,SW,225,3.7,-999.0,69,-99.99,,,0.02,Acu-Link.com,2013-02-22 05:03:00,
2013-02-21 22:18:00,28.4,19.6,29.68,SW,225,3.7,-999.0,69,-99.99,,,0.02,Acu-Link.com,2013-02-22 05:18:00,
2013-02-21 22:34:00,27.7,18.9,29.68,SW,225,3.7,-999.0,69,-99.99,,,0.02,Acu-Link.com,2013-02-22 05:34:00,
2013-02-21 22:49:00,27.1,18.6,29.69,SSW,202,0.0,-999.0,70,-99.99,,,0.02,Acu-Link.com,2013-02-22 05:49:00,
2013-02-21 23:04:00,26.1,18.0,29.68,SSW,202,0.0,-999.0,71,-99.99,,,0.02,Acu-Link.com,2013-02-22 06:04:00,
2013-02-21 23:20:00,25.2,17.5,29.69,SSW,202,1.1,-999.0,72,-99.99,,,0.02,Acu-Link.com,2013-02-22 06:20:00,
2013-02-21 23:35:00,27.3,18.8,29.69,SW,225,4.2,-999.0,70,-99.99,,,0.02,Acu-Link.com,2013-02-22 06:35:00,
2013-02-21 23:50:00,28.2,19.4,29.70,SSW,202,4.7,-999.0,69,-99.99,,,0.02,Acu-Link.com,2013-02-22 06:50:00,